Location: Wingville
(42.9917°N, 90.4915°W)
Time: 18:54:54
(UTC+00:00)

YUBILEINY - Pass Details

Date: 08 July 2022
Orbit: 1478 x 1509 km, 82.5° (Epoch: 08 August)

Event Time Altitude Azimuth Distance (km) Brightness Sun altitude
Rises 09:46:15 0° 350° (N) 4,645 ? -7.4°
Reaches altitude 10° 09:49:09 10° 350° (N) 3,657 ? -7.0°
Maximum altitude 09:57:58 84° 265° (W) 1,501 ? -5.8°
Drops below altitude 10° 10:06:40 10° 177° (S) 3,614 ? -4.5°
Sets 10:09:31 0° 177° (S) 4,588 ? -4.1°
